Torna al catalogo

ATLAS 5 CENTAUR DEB

AttivoHEO
NORAD 46485·DEBRIS·🇺🇸 United States

Lanciato Oct 17, 2018 da Cape Canaveral Space Force Station

Loading…

Prossimi Passaggi (prossime 24 ore)

TLE

AggiornatoSource: Space-Track

Epoca: Sep 13, 2026, 11:01 UTC

1 46485U 18079BY  26256.45928662 -.00000130  00000-0  00000-0 0  9990
2 46485  13.3893 335.4077 4406926  82.4553 323.8500  2.01579773 35632

Traccia ATLAS 5 CENTAUR DEB in tempo reale con AllMySat

Download on the App Store